{"data":{"norad_id":52153,"intl_designator":"2022-032A","name":"TIANPING 2A","alt_names":[],"object_type":"PAYLOAD","status":"ACTIVE","operator":null,"country":"PRC","launch_date":"2022-03-30","launch_site_code":"JSC","launch_vehicle":null,"mission":null,"orbit_class":"UNKNOWN","rcs_meters":null,"size_class":null,"mass_kg":null,"dimensions":null,"purposes":[],"wikipedia_slug":null,"has_3d_model":false,"image_url":null,"decayed_at":null,"tle_current":{"epoch":"2026-09-20T21:50:49.730784Z","epoch_age_seconds":85407,"freshness":"FRESH","line1":"1 52153U 22032A   26263.91029781  .00000726  00000+0  67274-4 0  9995","line2":"2 52153  97.5787 298.8052 0009476 209.0921 150.9774 14.97410960244165","mean_motion":14.9741096,"eccentricity":0.0009476,"inclination_deg":97.5787,"raan_deg":298.8052,"arg_perigee_deg":209.0921,"mean_anomaly_deg":150.9774,"bstar":6.7274e-5,"rev_number":24416,"period_min":96.165985054631,"perigee_km":568.31070254021,"apogee_km":581.48809712517,"semimajor_km":6953.0363998327,"source":"CELESTRAK","updated_at":"2026-09-21T09:00:08.491353Z"}}}